Location: De Har
(53.3413°N, 6.6858°E)
Time: 17:35:32
(UTC+00:00)

NOSS 3 (A) - Pass Details

Date: 22 April 2026
Orbit: 160 x 953 km, 63.3° (Epoch: 23 April)

Event Time Altitude Azimuth Distance (km) Brightness Sun altitude
Rises 03:26:46 0° 309° (NW) 1,732 7.7 -7.7°
Reaches altitude 10° 03:28:23 10° 304° (NW) 1,024 6.5 -7.5°
Maximum altitude 03:30:33 54° 225° (SW) 360 4.1 -7.2°
Drops below altitude 10° 03:33:19 10° 147° (SSE) 1,305 7.3 -6.9°
Sets 03:35:38 0° 143° (SE) 2,309 8.6 -6.6°
